Find Skykraft 4E

NORAD ID: 65227 Int'l Des: 2025-154 Owner: SKYKR Country: AU operational
LEOCIRCULARRETROGRADESSO

Live Position

Loading 3D Globe...

About Skykraft 4E

Description loading...

Upcoming Passes

Passes for default location (London). Set your location on the main map for personalized predictions.

Altitude History

Loading altitude history...

Two-Line Element Set

1 65227U 25154L 26110.45711399 .00005112 00000-0 44694-3 0 9997
2 65227 97.6712 176.2872 0006850 99.3321 260.8676 14.97177355 38695
Epoch: Apr 20, 2026 • Age: 12 hours

Current Status

Altitude 578.9 km
Velocity 7.58 km/s
Sub-Earth Point 46.24°N, 173.9°E
Launch Date Jul 23, 2025
Age 0.7 years
Type other

Technical Details

Classification Payload
Mass 50.00 kg
Dry Mass 50.00 kg
Total Mass 50.00 kg
Length 0.60 m
Diameter 0.10 m
Span 0.60 m
Shape Box
Manufacturer SKYKR
Bus Type Skykraft
Phase Status In Orbit
Owner/State SKYKR/AU

Most Searched